Location: �terpigny
(49.8910°N, 2.9249°E)
Time: 03:12:56
(UTC+00:00)

Cosmos 332 Rocket - Pass Details

Date: 07 June 2022
Orbit: 681 x 703 km, 74.0° (Epoch: 05 July)

Event Time Altitude Azimuth Distance (km) Brightness Sun altitude
Exits shadow 21:34:30 15° 131° (SE) 1,811 5.4 -11.6°
Maximum altitude 21:36:40 20° 98° (E) 1,568 5.3 -11.7°
Drops below altitude 10° 21:40:06 10° 52° (NE) 2,134 6.4 -12.0°
Sets 21:42:56 0° 36° (NE) 3,058 7.5 -12.2°
